• Processing (Info)

  • MPEC 2023-N27 : 2023 ND

    The following Minor Planet Electronic Circular may be linked-to from your own Web pages, but must not otherwise be redistributed electronically.

    A form allowing access to any MPEC is at the bottom of this page.


    Read MPEC 2023-N26 Read MPEC 2023-N28


    M.P.E.C. 2023-N27                                  Issued 2023 July 8, 22:10 UT
    
         The Minor Planet Electronic Circulars contain information on unusual
             minor planets, routine data on comets and natural satellites,
             and occasional editorial announcements.  They are published
        on behalf of Division F of the International Astronomical Union by the
              Minor Planet Center, Smithsonian Astrophysical Observatory,
                              Cambridge, MA 02138, U.S.A.
    			  
                 Prepared using the Tamkin Foundation Computer Network
    
                                  MPC@CFA.HARVARD.EDU
                URL https://www.minorplanetcenter.net/    ISSN 1523-6714
    
                                     2023 ND                                 
    
    
    Observations:
         K23N00D  C2023 06 07.32832915 52 47.052-19 04 29.56         23.15GVEN027F52
         K23N00D  C2023 06 07.33858115 52 46.313-19 04 10.76         23.09GVEN027F52
         K23N00D  C2023 06 07.34885015 52 45.571-19 03 51.98         22.38GVEN027F52
         K23N00D  C2023 06 15.32130815 44 56.476-13 58 09.96         21.36GVEN027F52
         K23N00D  C2023 06 15.33100315 44 55.721-13 57 42.59         21.25GVEN027F52
         K23N00D  C2023 06 15.34067915 44 54.963-13 57 15.71         22.18GVEN027F52
         K23N00D  C2023 06 15.35034715 44 54.183-13 56 48.60         21.67GVEN027F52
         K23N00D  C2023 06 19.34247215 40 59.887-10 28 16.65         21.40GVEN027F51
         K23N00D  C2023 06 19.38736115 40 56.310-10 25 39.70         21.64GVEN027F51
         K23N00D  C2023 06 22.30376815 38 13.304-07 21 20.59         22.18GVEN027F51
         K23N00D  C2023 06 22.31767715 38 12.198-07 20 23.51         21.55GVEN027F51
         K23N00D  C2023 06 22.32937115 38 11.267-07 19 35.19         21.52GVEN027F51
         K23N00D*1C2023 07 06.25103915 26 38.317+17 58 50.45         20.39GVEN027G96
         K23N00D 1C2023 07 06.25615615 26 37.903+17 59 40.74         20.41GVEN027G96
         K23N00D 1C2023 07 06.26127415 26 37.468+18 00 30.74         20.15GVEN027G96
         K23N00D 1C2023 07 06.26643615 26 37.079+18 01 22.55         20.79GVEN027G96
         K23N00D KC2023 07 06.31548915 26 33.400+18 09 25.10               VEN027I52
         K23N00D KC2023 07 06.31870315 26 33.190+18 09 56.70         21.33GVEN027I52
         K23N00D KC2023 07 06.32191815 26 33.000+18 10 29.30               VEN027I52
         K23N00D KC2023 07 06.89175315 26 07.45 +19 46 51.2          21.0 GVEN027L01
         K23N00D KC2023 07 06.89348215 26 07.32 +19 47 08.7          20.9 GVEN027L01
         K23N00D KC2023 07 06.89558115 26 07.16 +19 47 30.7          20.6 GVEN027L01
         K23N00D KC2023 07 06.89911715 26 06.94 +19 48 06.6          21.0 GVEN027L01
         K23N00D 6C2023 07 06.91493315 26 06.773+19 51 05.65         20.8 GVEN027Z84
         K23N00D 6C2023 07 06.92948215 26 05.552+19 53 35.52         20.8 GVEN027Z84
         K23N00D KC2023 07 07.21971 15 25 51.28 +20 44 24.1                oEN027291
         K23N00D KC2023 07 07.22311 15 25 50.96 +20 45 00.1                oEN027291
         K23N00D KC2023 07 07.22653 15 25 50.67 +20 45 36.1                oEN027291
         K23N00D  C2023 07 07.27394015 25 47.281+20 53 50.54         20.6 GVEN027654
         K23N00D  C2023 07 07.28182515 25 46.635+20 55 12.88         20.6 GVEN027654
         K23N00D KC2023 07 07.30916615 25 43.849+21 00 00.36         20.86GVEN027I52
         K23N00D KC2023 07 07.31090515 25 43.745+21 00 18.58         20.80GVEN027I52
         K23N00D KC2023 07 07.31264415 25 43.644+21 00 36.65         20.30GVEN027I52
         K23N00D KC2023 07 07.31438115 25 43.493+21 00 54.83         20.33GVEN027I52
         K23N00D 1C2023 07 07.88019 15 25 17.83 +22 42 31.9          21.1 VXEN027033
         K23N00D 1C2023 07 07.88140 15 25 17.72 +22 42 45.1          21.0 VXEN027033
         K23N00D 1C2023 07 07.88262 15 25 17.62 +22 42 58.3          21.2 VXEN027033
         K23N00D KB2023 07 07.90700 15 25 15.30 +22 47 32.1          20.6 RZEN027106
         K23N00D KB2023 07 07.91127 15 25 14.93 +22 48 19.4          20.0 RZEN027106
         K23N00D KB2023 07 07.91570 15 25 14.60 +22 49 06.5          20.3 RZEN027106
         K23N00D KB2023 07 07.91997 15 25 14.24 +22 49 53.4          20.4 RZEN027106
         K23N00D  C2023 07 08.24608515 24 57.756+23 50 46.71         20.8 GVEN027654
         K23N00D  C2023 07 08.25391715 24 57.058+23 52 14.02         20.8 GVEN027654
         K23N00D KC2023 07 08.29054 15 24 53.29 +23 59 03.1                oEN027291
         K23N00D KC2023 07 08.29325 15 24 53.08 +23 59 33.2                oEN027291
         K23N00D KC2023 07 08.29596 15 24 52.85 +24 00 03.7                oEN027291
    
    Observer details:
    033 Karl Schwarzschild Observatory, Tautenburg.  Observers S. Melnikov, C.
        Hoegner, F. Ludwig, B. Stecklum.  Measurer B. Stecklum.  1.34-m f/3
        Schmidt + CCD.
    106 Crni Vrh.  Observer H. Mikuz.  0.60-m f/3.3 reflector + CMO.
    291 LPL/Spacewatch II.  Observers J. V. Scotti, R. A. Mastaler.  1.8-m f/2.7
        reflector + CCD.
    654 Table Mountain Observatory, Wrightwood-PHMC.  Observers N. Evans, P. Choi,
        N. Saini, C. Zhai, R. Trahan, M. Shao.  1.0-m Reflector + CCD.
    F51 Pan-STARRS 1, Haleakala.  Observers J. Bulger, K. Chambers, T. Lowe, P.
        Minguez, A. Schultz, I. Smith.  Measurers S. Chastel, J. Fairlamb, M.
        Huber, Y. Ramanjooloo, R. Wainscoat, R. Weryk.  1.8-m Ritchey-Chretien +
        CCD.
    F52 Pan-STARRS 2, Haleakala.  Observers J. Bulger, K. Chambers, T. Dukes, T.
        Lowe, P. Minguez, A. Schultz, I. Smith.  Measurers S. Chastel, J.
        Fairlamb, M. Huber, Y. Ramanjooloo, R. Wainscoat, R. Weryk.  1.8-m
        Ritchey-Chretien + CCD.
    G96 Mt. Lemmon Survey.  Observer G. J. Leonard.  Measurers E. J. Christensen,
        D. Fay, J. B. Fazekas, D. C. Fuls, A. R. Gibbs, A. D. Grauer, H. Groeller,
        J. K. Hogan, R. A. Kowalski, S. M. Larson, G. J. Leonard, D. Rankin, R. L.
        Seaman, A. Serrano, F. C. Shelly, K. W. Wierzchos.  1.5-m reflector + 10K
        CCD.
    I52 Steward Observatory, Mt. Lemmon Station.  Observer K. W. Wierzchos.
        Measurers E. J. Christensen, D. Fay, J. B. Fazekas, D. C. Fuls, A. R.
        Gibbs, A. D. Grauer, H. Groeller, J. K. Hogan, R. A. Kowalski, S. M.
        Larson, G. J. Leonard, D. Rankin, R. L. Seaman, A. Serrano, F. C. Shelly,
        K. W. Wierzchos.  1.0-m prime focus + CCD.
    L01 Visnjan Observatory, Tican.  Observer K. Korlevic.  1.0-m f/2.9 reflector
        + CCD.
    Z84 Calar Alto-Schmidt.  Observers M. Micheli, R. Kresken.  Measurers R.
        Kresken, M. Micheli, F. Ocana, L. Conversi.  0.8-m f/3 Schmidt + CCD.
    
    Orbital elements:
    2023 ND                                                  Earth MOID = 0.0600 AU
    Epoch 2023 Feb. 25.0 TT = JDT 2460000.5                 Veres                   
    M 309.84670              (2000.0)            P               Q                  
    n   0.30741861     Peri.   67.88848     +0.74982176     +0.65497943             
    a   2.1742824      Node   251.06066     -0.63766652     +0.67762504             
    e   0.5521986      Incl.    5.68183     -0.17649003     +0.33440433             
    P   3.21           H   24.14          G   0.15           U   6                  
    Residuals in seconds of arc
    230607 F52  0.1-  0.0     230706 I52  0.1-  0.3-    230707 I52  0.3+  0.1+
    230607 F52  0.0   0.0     230706 I52  0.1+  0.4-    230707 I52  0.0   0.1+
    230607 F52  0.1+  0.2-    230706 I52  0.6+  0.6+    230707 033  0.1+  0.2+
    230615 F52  0.1-  0.1-    230706 L01  0.7-  0.2+    230707 033  0.0   0.2+
    230615 F52  0.0   0.2+    230706 L01  0.6-  0.1-    230707 033  0.1-  0.0
    230615 F52  0.1+  0.0     230706 L01  0.6-  0.3+    230707 106  0.6+  0.1+
    230615 F52  0.1-  0.0     230706 L01  0.2+  0.1-    230707 106  0.2+  0.8+
    230619 F51  0.1-  0.1+    230706 Z84  0.1+  0.1+    230707 106  0.5+  0.4-
    230619 F51  0.0   0.1+    230706 Z84  0.1+  0.0     230707 106  0.1+  0.1-
    230622 F51  0.1+  0.0     230707 291  0.4+  0.1-    230708 654  0.0   0.0
    230622 F51  0.1+  0.0     230707 291  0.1+  0.2+    230708 654  0.0   0.1+
    230622 F51  0.1+  0.2+    230707 291  0.2+  0.3+    230708 291  0.1-  0.1-
    230706 G96  0.2+  0.2-    230707 654  0.1+  0.1+    230708 291  0.1+  0.0
    230706 G96  0.1+  0.3-    230707 654  0.1+  0.3-    230708 291  0.1-  0.4+
    230706 G96  0.3-  0.7-    230707 I52  0.4-  0.2+
    230706 G96  0.0   0.2+    230707 I52  0.1-  0.3+
    
    Ephemeris:
    2023 ND                  a,e,i = 2.17, 0.55, 6                   q = 0.9736
    Date    TT    R. A. (2000) Decl.     Delta      r    Elong.  Phase     V
    2023 06 08    15 52 07.7 -18 42 56   0.2204  1.2275   163.2    13.8    22.1
    ...
    2023 06 23    15 37 34.3 -06 32 14   0.1400  1.1285   140.9    34.6    21.6
    ...
    2023 07 01    15 30 49.1 +05 43 09   0.1060  1.0824   126.0    49.4    21.3
    ...
    2023 07 07    15 26 04.5 +20 06 13   0.08592 1.0520   112.1    63.6    21.2
    2023 07 08    15 25 13.5 +23 05 16   0.08321 1.0474   109.5    66.2    21.2
    2023 07 09    15 24 19.8 +26 15 16   0.08072 1.0428   106.7    69.0    21.2
    ...
    2023 07 15    15 16 48.7 +48 39 35   0.07168 1.0181    89.3    86.7    21.5
    ...
    2023 07 23    14 23 45.7 +79 53 29   0.07826 0.9931    70.8   104.9    22.5
    ...
    2023 08 07    04 11 23.3 +65 43 46   0.1289  0.9736    68.1   104.8    23.5
    
    M. P. C. Staff               (C) Copyright 2023 MPC           M.P.E.C. 2023-N27
    


    Read MPEC 2023-N26 Read MPEC 2023-N28


    MPEC number:

    Enter an MPEC number in one of the following forms:

    • 1997-B01 (the full form)
    • J97B01 (the packed version of the full form)
    • B01 (the abbreviated form)